This is the latest recevied weather packets stored in our database for station/object N6ZHV-13. If no packets are shown the sender has not sent any weather packets the latest 10 day(s).
| Time | Temp. | Humidity | Pressure | Rain* | Wind** | Luminosity | Snow |
|---|---|---|---|---|---|---|---|
| 1788001332 | 23.33° C | 82% | 1007.3 hPa | 0 mm | - | - | - |
| 1788001032 | 23.89° C | 84% | 1007.3 hPa | 0 mm | - | - | - |
| 1788000732 | 23.89° C | 84% | 1007.2 hPa | 0 mm | - | - | - |
| 1788000432 | 23.89° C | 82% | 1007.2 hPa | 0 mm | - | - | - |
| 1788000132 | 23.89° C | 79% | 1007.2 hPa | 0 mm | - | - | - |
| 1787999832 | 23.89° C | 77% | 1007.2 hPa | 0 mm | - | - | - |
| 1787999532 | 23.89° C | 74% | 1007.2 hPa | 0 mm | - | - | - |
| 1787999232 | 23.89° C | 74% | 1007.1 hPa | 0 mm | - | - | - |
| 1787998932 | 23.89° C | 73% | 1007 hPa | 0 mm | - | - | - |
| 1787998632 | 23.89° C | 75% | 1006.9 hPa | 0 mm | - | - | - |
| 1787998332 | 23.89° C | 75% | 1006.7 hPa | 0 mm | - | - | - |
| 1787998032 | 23.89° C | 74% | 1006.7 hPa | 0 mm | - | - | - |
| 1787997732 | 23.89° C | 74% | 1006.7 hPa | 0 mm | - | - | - |
| 1787997432 | 23.89° C | 73% | 1006.8 hPa | 0 mm | - | - | - |
| 1787997132 | 23.89° C | 72% | 1006.8 hPa | 0 mm | - | - | - |
| 1787996832 | 23.89° C | 72% | 1006.7 hPa | 0 mm | - | - | - |
| 1787996542 | 23.89° C | 72% | 1006.7 hPa | 0 mm | - | - | - |
| 1787996232 | 23.89° C | 72% | 1006.7 hPa | 0 mm | - | - | - |
| 1787995932 | 23.89° C | 73% | 1006.8 hPa | 0 mm | - | - | - |
| 1787995632 | 23.89° C | 74% | 1006.8 hPa | 0 mm | - | - | - |
| 1787995332 | 23.89° C | 74% | 1006.8 hPa | 0 mm | - | - | - |
| 1787995032 | 23.33° C | 75% | 1006.8 hPa | 0 mm | - | - | - |
| 1787994732 | 23.33° C | 77% | 1006.8 hPa | 0 mm | - | - | - |
| 1787994432 | 23.33° C | 79% | 1006.9 hPa | 0 mm | - | - | - |
| 1787994132 | 23.33° C | 79% | 1006.9 hPa | 0 mm | - | - | - |
* Rain latest hour (hover to see other rain measurements)
** Current wind speed in m/s (hover to see current wind gust speed)